| time (UTC) | temp F | wind direction | speed knots | gust knots | rain 1hr in | rain 24hr in | rain mn in | humidity % | barometer mb |
| 20260504003412 | 81 | 66 | 2.6 | 3.5 | 0.00 | 0.00 | 0.00 | 42 | 1014.7 |
| 20260504002912 | 81 | 5 | 4.3 | 8.7 | 0.00 | 0.00 | 0.00 | 41 | 1015.0 |
| 20260504002412 | 81 | 10 | 2.6 | 3.5 | 0.00 | 0.00 | 0.00 | 42 | 1014.8 |
| 20260504001912 | 81 | 33 | 2.6 | 4.3 | 0.00 | 0.00 | 0.00 | 42 | 1015.0 |
| 20260504001412 | 82 | 24 | 5.2 | 6.1 | 0.00 | 0.00 | 0.00 | 41 | 1015.0 |
| 20260504000913 | 82 | 79 | 2.6 | 2.6 | 0.00 | 0.00 | 0.00 | 41 | 1014.9 |
| 20260504000412 | 82 | 335 | 4.3 | 7.8 | 0.00 | 0.00 | 0.00 | 41 | 1015.0 |
| 20260503235912 | 82 | 61 | 4.3 | 5.2 | 0.00 | 0.00 | 0.00 | 41 | 1014.9 |
| 20260503235412 | 82 | 125 | 3.5 | 7.8 | 0.00 | 0.00 | 0.00 | 41 | 1014.9 |
| 20260503234913 | 82 | 12 | 2.6 | 3.5 | 0.00 | 0.00 | 0.00 | 41 | 1014.9 |
| 20260503234413 | 82 | 63 | 4.3 | 6.1 | 0.00 | 0.00 | 0.00 | 40 | 1015.0 |
| 20260503233913 | 82 | 62 | 5.2 | 7.8 | 0.00 | 0.00 | 0.00 | 40 | 1015.0 |
| 20260503233412 | 82 | 9 | 0.9 | 1.7 | 0.00 | 0.00 | 0.00 | 41 | 1014.8 |
| 20260503232912 | 83 | 25 | 1.7 | 2.6 | 0.00 | 0.00 | 0.00 | 40 | 1015.0 |
| 20260503232412 | 82 | 49 | 5.2 | 7.8 | 0.00 | 0.00 | 0.00 | 40 | 1014.7 |
| 20260503231912 | 83 | 29 | 5.2 | 7.8 | 0.00 | 0.00 | 0.00 | 40 | 1014.9 |
| 20260503231412 | 82 | 339 | 3.5 | 4.3 | 0.00 | 0.00 | 0.00 | 40 | 1015.0 |
| 20260503230913 | 83 | 22 | 4.3 | 5.2 | 0.00 | 0.00 | 0.00 | 40 | 1015.1 |
| 20260503230412 | 83 | 43 | 1.7 | 2.6 | 0.00 | 0.00 | 0.00 | 40 | 1015.0 |
| 20260503225912 | 83 | 7 | 2.6 | 3.5 | 0.00 | 0.00 | 0.00 | 40 | 1014.9 |
| 20260503225412 | 82 | 340 | 2.6 | 3.5 | 0.00 | 0.00 | 0.00 | 40 | 1015.2 |
| 20260503224913 | 82 | 74 | 5.2 | 7.8 | 0.00 | 0.00 | 0.00 | 40 | 1015.1 |
| 20260503224413 | 83 | 100 | 2.6 | 5.2 | 0.00 | 0.00 | 0.00 | 41 | 1014.9 |
| 20260503223913 | 82 | 92 | 4.3 | 7.8 | 0.00 | 0.00 | 0.00 | 41 | 1014.9 |
| 20260503223412 | 83 | 86 | 1.7 | 2.6 | 0.00 | 0.00 | 0.00 | 40 | 1015.0 |
| 20260503222912 | 83 | 282 | 4.3 | 4.3 | 0.00 | 0.00 | 0.00 | 40 | 1015.2 |
| 20260503222412 | 82 | 46 | 5.2 | 7.8 | 0.00 | 0.00 | 0.00 | 40 | 1015.1 |
| 20260503221913 | 83 | 25 | 3.5 | 4.3 | 0.00 | 0.00 | 0.00 | 41 | 1015.2 |
| 20260503221413 | 83 | 28 | 5.2 | 5.2 | 0.00 | 0.00 | 0.00 | 40 | 1015.3 |
| 20260503220913 | 82 | 89 | 2.6 | 3.5 | 0.00 | 0.00 | 0.00 | 41 | 1015.3 |
| 20260503220412 | 82 | 30 | 1.7 | 2.6 | 0.00 | 0.00 | 0.00 | 41 | 1015.6 |
| 20260503215912 | 82 | 83 | 5.2 | 6.1 | 0.00 | 0.00 | 0.00 | 41 | 1015.6 |
| 20260503215412 | 83 | 6 | 2.6 | 3.5 | 0.00 | 0.00 | 0.00 | 41 | 1015.7 |
| 20260503214913 | 82 | 260 | 2.6 | 2.6 | 0.00 | 0.00 | 0.00 | 41 | 1015.9 |
| 20260503214413 | 81 | 330 | 2.6 | 3.5 | 0.00 | 0.00 | 0.00 | 42 | 1015.8 |
| 20260503213913 | 82 | 14 | 5.2 | 6.1 | 0.00 | 0.00 | 0.00 | 41 | 1016.1 |
| 20260503213412 | 82 | 100 | 3.5 | 4.3 | 0.00 | 0.00 | 0.00 | 42 | 1016.3 |
| 20260503212912 | 81 | 138 | 3.5 | 3.5 | 0.00 | 0.00 | 0.00 | 42 | 1016.3 |
| 20260503212412 | 82 | 67 | 2.6 | 3.5 | 0.00 | 0.00 | 0.00 | 42 | 1016.7 |
| 20260503211913 | 82 | 1 | 0.9 | 1.7 | 0.00 | 0.00 | 0.00 | 42 | 1016.7 |
| 20260503211413 | 81 | 47 | 3.5 | 4.3 | 0.00 | 0.00 | 0.00 | 43 | 1016.9 |
| 20260503210913 | 82 | 306 | 4.3 | 5.2 | 0.00 | 0.00 | 0.00 | 42 | 1016.7 |
| 20260503210412 | 82 | 75 | 4.3 | 6.1 | 0.00 | 0.00 | 0.00 | 43 | 1017.1 |
| 20260503205912 | 81 | 23 | 1.7 | 2.6 | 0.00 | 0.00 | 0.00 | 42 | 1016.9 |
| 20260503205412 | 80 | 85 | 0.9 | 2.6 | 0.00 | 0.00 | 0.00 | 43 | 1017.2 |
| 20260503204912 | 80 | 112 | 2.6 | 4.3 | 0.00 | 0.00 | 0.00 | 43 | 1017.5 |
| 20260503204412 | 81 | 264 | 3.5 | 4.3 | 0.00 | 0.00 | 0.00 | 42 | 1017.5 |
| 20260503203913 | 81 | 341 | 1.7 | 2.6 | 0.00 | 0.00 | 0.00 | 43 | 1017.8 |
| 20260503203412 | 79 | 287 | 0.9 | 1.7 | 0.00 | 0.00 | 0.00 | 45 | 1018.1 |
| 20260503202912 | 80 | 158 | 0.9 | 1.7 | 0.00 | 0.00 | 0.00 | 44 | 1018.2 |
| 20260503202412 | 80 | 341 | 2.6 | 3.5 | 0.00 | 0.00 | 0.00 | 44 | 1018.0 |
| 20260503201912 | 79 | 346 | 3.5 | 7.8 | 0.00 | 0.00 | 0.00 | 45 | 1018.3 |
| 20260503201413 | 80 | 267 | 1.7 | 1.7 | 0.00 | 0.00 | 0.00 | 45 | 1018.3 |
| 20260503200913 | 80 | 277 | 4.3 | 6.1 | 0.00 | 0.00 | 0.00 | 45 | 1018.5 |
| 20260503200412 | 79 | 277 | 3.5 | 3.5 | 0.00 | 0.00 | 0.00 | 45 | 1018.5 |
| 20260503195912 | 78 | 69 | 4.3 | 4.3 | 0.00 | 0.00 | 0.00 | 46 | 1018.7 |
| 20260503195412 | 79 | 87 | 1.7 | 2.6 | 0.00 | 0.00 | 0.00 | 45 | 1018.4 |
| 20260503194913 | 77 | 349 | 1.7 | 2.6 | 0.00 | 0.00 | 0.00 | 47 | 1018.7 |
| 20260503194413 | 77 | 123 | 1.7 | 2.6 | 0.00 | 0.00 | 0.00 | 47 | 1018.4 |
| 20260503193913 | 78 | 38 | 3.5 | 5.2 | 0.00 | 0.00 | 0.00 | 47 | 1018.8 |
| 20260503193412 | 78 | 291 | 0.9 | 1.7 | 0.00 | 0.00 | 0.00 | 48 | 1018.5 |
| 20260503192912 | 78 | 286 | 3.5 | 4.3 | 0.00 | 0.00 | 0.00 | 46 | 1018.8 |
| 20260503192412 | 76 | 315 | 4.3 | 4.3 | 0.00 | 0.00 | 0.00 | 48 | 1019.1 |
| 20260503191913 | 76 | 308 | 4.3 | 6.1 | 0.00 | 0.00 | 0.00 | 49 | 1019.0 |
| 20260503191413 | 76 | 262 | 0.9 | 1.7 | 0.00 | 0.00 | 0.00 | 49 | 1019.2 |
| 20260503190913 | 75 | 88 | 1.7 | 2.6 | 0.00 | 0.00 | 0.00 | 51 | 1019.5 |
| 20260503190412 | 74 | 312 | 1.7 | 2.6 | 0.00 | 0.00 | 0.00 | 50 | 1019.4 |
| 20260503185912 | 75 | 72 | 1.7 | 2.6 | 0.00 | 0.00 | 0.00 | 50 | 1019.6 |
| 20260503185412 | 75 | 359 | 5.2 | 6.1 | 0.00 | 0.00 | 0.00 | 50 | 1019.7 |
| 20260503184913 | 74 | 18 | 1.7 | 2.6 | 0.00 | 0.00 | 0.00 | 49 | 1019.8 |
| 20260503184413 | 76 | 286 | 4.3 | 5.2 | 0.00 | 0.00 | 0.00 | 48 | 1020.2 |
| 20260503183913 | 73 | 154 | 3.5 | 4.3 | 0.00 | 0.00 | 0.00 | 51 | 1020.3 |
| 20260503183413 | 73 | 103 | 2.6 | 4.3 | 0.00 | 0.00 | 0.00 | 51 | 1020.4 |
| 20260503182913 | 74 | 165 | 3.5 | 5.2 | 0.00 | 0.00 | 0.00 | 49 | 1020.6 |
| 20260503182413 | 74 | 28 | 3.5 | 3.5 | 0.00 | 0.00 | 0.00 | 50 | 1020.8 |
| 20260503181913 | 74 | 52 | 1.7 | 1.7 | 0.00 | 0.00 | 0.00 | 49 | 1021.1 |
| 20260503181413 | 74 | 78 | 0.9 | 1.7 | 0.00 | 0.00 | 0.00 | 50 | 1021.0 |
| 20260503180913 | 74 | 8 | 1.7 | 2.6 | 0.00 | 0.00 | 0.00 | 50 | 1021.2 |
| 20260503180412 | 74 | 70 | 1.7 | 2.6 | 0.00 | 0.00 | 0.00 | 50 | 1021.2 |
| 20260503175912 | 73 | 242 | 0.9 | 1.7 | 0.00 | 0.00 | 0.00 | 51 | 1021.5 |
| 20260503175412 | 72 | 125 | 1.7 | 2.6 | 0.00 | 0.00 | 0.00 | 51 | 1021.6 |
| 20260503174913 | 74 | 135 | 1.7 | 2.6 | 0.00 | 0.00 | 0.00 | 50 | 1021.6 |
| 20260503174412 | 72 | 173 | 1.7 | 2.6 | 0.00 | 0.00 | 0.00 | 50 | 1021.7 |
| 20260503173913 | 71 | 149 | 1.7 | 3.5 | 0.00 | 0.00 | 0.00 | 52 | 1021.7 |
| 20260503173412 | 70 | 192 | 0.9 | 1.7 | 0.00 | 0.00 | 0.00 | 53 | 1021.9 |
| 20260503172912 | 73 | 95 | 4.3 | 5.2 | 0.00 | 0.00 | 0.00 | 51 | 1022.0 |
| 20260503172413 | 73 | 249 | 0.9 | 1.7 | 0.00 | 0.00 | 0.00 | 50 | 1022.0 |
| 20260503171913 | 71 | 51 | 2.6 | 4.3 | 0.00 | 0.00 | 0.00 | 53 | 1022.1 |
| 20260503171413 | 73 | 180 | 2.6 | 2.6 | 0.00 | 0.00 | 0.00 | 51 | 1022.4 |
| 20260503170913 | 72 | 120 | 2.6 | 3.5 | 0.00 | 0.00 | 0.00 | 51 | 1022.1 |
| 20260503170412 | 70 | 199 | 1.7 | 1.7 | 0.00 | 0.00 | 0.00 | 53 | 1022.4 |
| 20260503150913 | 67 | 262 | 1.7 | 2.6 | 0.00 | 0.00 | 0.00 | 56 | 1023.1 |
| 20260503150412 | 67 | 294 | 0.9 | 1.7 | 0.00 | 0.00 | 0.00 | 55 | 1023.1 |
| 20260503131412 | 62 | 224 | 0.9 | 1.7 | 0.00 | 0.00 | 0.00 | 66 | 1022.4 |
| 20260503130913 | 62 | 260 | 0.9 | 1.7 | 0.00 | 0.00 | 0.00 | 67 | 1022.1 |
| 20260503130413 | 61 | 256 | 1.7 | 2.6 | 0.00 | 0.00 | 0.00 | 67 | 1022.3 |
| 20260503110412 | 59 | 240 | 0.0 | 0.0 | 0.00 | 0.00 | 0.00 | 71 | 1020.7 |
| 20260503090412 | 61 | 208 | 2.6 | 3.5 | 0.00 | 0.00 | 0.00 | 68 | 1021.0 |
| 20260503081412 | 60 | 227 | 1.7 | 2.6 | 0.00 | 0.00 | 0.00 | 67 | 1021.2 |
| 20260503080913 | 60 | 213 | 1.7 | 2.6 | 0.00 | 0.00 | 0.00 | 67 | 1021.3 |
| 20260503080412 | 60 | 225 | 1.7 | 2.6 | 0.00 | 0.00 | 0.00 | 68 | 1021.1 |
| 20260503072912 | 60 | 170 | 4.3 | 5.2 | 0.00 | 0.00 | 0.00 | 69 | 1021.4 |
| 20260503072413 | 60 | 191 | 4.3 | 5.2 | 0.00 | 0.00 | 0.00 | 68 | 1021.5 |
| 20260503071912 | 60 | 218 | 1.7 | 2.6 | 0.00 | 0.00 | 0.00 | 67 | 1021.5 |
| 20260503071412 | 60 | 260 | 0.9 | 1.7 | 0.00 | 0.00 | 0.00 | 67 | 1021.2 |
| 20260503070912 | 60 | 265 | 1.7 | 2.6 | 0.00 | 0.00 | 0.00 | 67 | 1021.3 |
| 20260503070413 | 60 | 231 | 0.0 | 0.0 | 0.00 | 0.00 | 0.00 | 68 | 1021.2 |
| 20260503054912 | 62 | 286 | 1.7 | 1.7 | 0.00 | 0.00 | 0.00 | 67 | 1021.6 |
| 20260503054412 | 63 | 306 | 1.7 | 2.6 | 0.00 | 0.00 | 0.00 | 66 | 1021.3 |
| 20260503053912 | 63 | 302 | 1.7 | 2.6 | 0.00 | 0.00 | 0.00 | 65 | 1021.6 |
| 20260503053413 | 63 | 318 | 2.6 | 3.5 | 0.00 | 0.00 | 0.00 | 65 | 1021.5 |
| 20260503052913 | 63 | 334 | 2.6 | 2.6 | 0.00 | 0.00 | 0.00 | 65 | 1021.5 |
| 20260503052413 | 63 | 324 | 3.5 | 4.3 | 0.00 | 0.00 | 0.00 | 65 | 1021.4 |
| 20260503051912 | 64 | 326 | 2.6 | 3.5 | 0.00 | 0.00 | 0.00 | 65 | 1021.5 |
| 20260503051412 | 64 | 280 | 1.7 | 2.6 | 0.00 | 0.00 | 0.00 | 64 | 1021.6 |
| 20260503050913 | 64 | 355 | 3.5 | 4.3 | 0.00 | 0.00 | 0.00 | 64 | 1021.7 |
| 20260503050413 | 64 | 349 | 2.6 | 4.3 | 0.00 | 0.00 | 0.00 | 64 | 1021.6 |
| 20260503045913 | 64 | 294 | 1.7 | 2.6 | 0.00 | 0.00 | 0.00 | 65 | 1021.4 |
| 20260503045413 | 64 | 317 | 1.7 | 2.6 | 0.00 | 0.00 | 0.00 | 65 | 1021.3 |
| 20260503044912 | 64 | 327 | 0.9 | 1.7 | 0.00 | 0.00 | 0.00 | 65 | 1021.4 |
| 20260503044412 | 64 | 346 | 2.6 | 4.3 | 0.00 | 0.00 | 0.00 | 64 | 1021.3 |
| 20260503043912 | 64 | 305 | 1.7 | 2.6 | 0.00 | 0.00 | 0.00 | 63 | 1021.5 |
| 20260503043413 | 65 | 33 | 1.7 | 2.6 | 0.00 | 0.00 | 0.00 | 63 | 1021.3 |
| 20260503042913 | 65 | 357 | 1.7 | 2.6 | 0.00 | 0.00 | 0.00 | 62 | 1021.2 |
| 20260503042413 | 65 | 29 | 1.7 | 2.6 | 0.00 | 0.00 | 0.00 | 62 | 1021.5 |
| 20260503041912 | 65 | 51 | 1.7 | 2.6 | 0.00 | 0.00 | 0.00 | 61 | 1021.4 |
| 20260503041412 | 65 | 36 | 2.6 | 4.3 | 0.00 | 0.00 | 0.00 | 61 | 1021.4 |
| 20260503040912 | 65 | 354 | 3.5 | 3.5 | 0.00 | 0.00 | 0.00 | 60 | 1021.7 |
| 20260503040413 | 65 | 336 | 1.7 | 2.6 | 0.00 | 0.00 | 0.00 | 60 | 1021.2 |
| 20260503035912 | 66 | 53 | 1.7 | 2.6 | 0.00 | 0.00 | 0.00 | 60 | 1021.4 |
| 20260503035412 | 66 | 271 | 0.9 | 1.7 | 0.00 | 0.00 | 0.00 | 60 | 1021.5 |
| 20260503034912 | 66 | 254 | 0.9 | 1.7 | 0.00 | 0.00 | 0.00 | 60 | 1021.5 |
| 20260503034412 | 66 | 307 | 1.7 | 1.7 | 0.00 | 0.00 | 0.00 | 60 | 1021.3 |
| 20260503033913 | 66 | 336 | 2.6 | 3.5 | 0.00 | 0.00 | 0.00 | 60 | 1021.3 |
| 20260503033412 | 66 | 4 | 0.9 | 1.7 | 0.00 | 0.00 | 0.00 | 60 | 1021.2 |
| 20260503032912 | 66 | 351 | 1.7 | 1.7 | 0.00 | 0.00 | 0.00 | 60 | 1021.1 |
| 20260503032412 | 66 | 287 | 0.9 | 1.7 | 0.00 | 0.00 | 0.00 | 61 | 1021.1 |
| 20260503031912 | 66 | 339 | 1.7 | 2.6 | 0.00 | 0.00 | 0.00 | 61 | 1021.4 |
| 20260503031412 | 66 | 319 | 2.6 | 3.5 | 0.00 | 0.00 | 0.00 | 60 | 1021.1 |
| 20260503030913 | 66 | 343 | 1.7 | 2.6 | 0.00 | 0.00 | 0.00 | 60 | 1021.0 |
| 20260503030413 | 66 | 331 | 0.9 | 1.7 | 0.00 | 0.00 | 0.00 | 60 | 1021.0 |
| 20260503025912 | 66 | 357 | 1.7 | 1.7 | 0.00 | 0.00 | 0.00 | 59 | 1021.0 |
| 20260503025412 | 66 | 336 | 0.9 | 1.7 | 0.00 | 0.00 | 0.00 | 59 | 1021.0 |
| 20260503024912 | 67 | 202 | 0.9 | 1.7 | 0.00 | 0.00 | 0.00 | 58 | 1020.6 |
| 20260503024412 | 67 | 7 | 1.7 | 2.6 | 0.00 | 0.00 | 0.00 | 58 | 1020.6 |
| 20260503023913 | 67 | 313 | 1.7 | 1.7 | 0.00 | 0.00 | 0.00 | 57 | 1020.5 |
| 20260503023413 | 67 | 296 | 2.6 | 3.5 | 0.00 | 0.00 | 0.00 | 57 | 1020.5 |
| 20260503022912 | 67 | 290 | 1.7 | 2.6 | 0.00 | 0.00 | 0.00 | 57 | 1020.6 |
| 20260503022412 | 67 | 6 | 0.9 | 1.7 | 0.00 | 0.00 | 0.00 | 56 | 1020.7 |
| 20260503021912 | 67 | 288 | 1.7 | 2.6 | 0.00 | 0.00 | 0.00 | 56 | 1020.7 |
| 20260503021412 | 67 | 297 | 0.9 | 1.7 | 0.00 | 0.00 | 0.00 | 56 | 1020.8 |
| 20260503020913 | 68 | 352 | 2.6 | 3.5 | 0.00 | 0.00 | 0.00 | 56 | 1020.6 |
| 20260503020413 | 68 | 326 | 3.5 | 4.3 | 0.00 | 0.00 | 0.00 | 55 | 1020.4 |
| 20260503015913 | 68 | 313 | 0.9 | 1.7 | 0.00 | 0.00 | 0.00 | 56 | 1020.1 |
| 20260503015412 | 68 | 5 | 2.6 | 3.5 | 0.00 | 0.00 | 0.00 | 55 | 1020.3 |
| 20260503014912 | 68 | 336 | 2.6 | 4.3 | 0.00 | 0.00 | 0.00 | 55 | 1020.3 |
| 20260503014412 | 68 | 352 | 1.7 | 3.5 | 0.00 | 0.00 | 0.00 | 56 | 1020.3 |
| 20260503013913 | 68 | 15 | 1.7 | 2.6 | 0.00 | 0.00 | 0.00 | 56 | 1020.5 |
| 20260503013412 | 68 | 14 | 2.6 | 3.5 | 0.00 | 0.00 | 0.00 | 56 | 1020.2 |
| 20260503012912 | 68 | 24 | 1.7 | 2.6 | 0.00 | 0.00 | 0.00 | 56 | 1020.4 |
| 20260503012412 | 68 | 335 | 2.6 | 3.5 | 0.00 | 0.00 | 0.00 | 56 | 1020.3 |
| 20260503011912 | 68 | 30 | 1.7 | 4.3 | 0.00 | 0.00 | 0.00 | 55 | 1020.2 |
| 20260503011412 | 68 | 14 | 2.6 | 3.5 | 0.00 | 0.00 | 0.00 | 55 | 1020.3 |
| 20260503010913 | 68 | 327 | 2.6 | 3.5 | 0.00 | 0.00 | 0.00 | 56 | 1020.0 |
| 20260503010412 | 68 | 353 | 1.7 | 3.5 | 0.00 | 0.00 | 0.00 | 55 | 1019.9 |
| 20260503005912 | 68 | 71 | 2.6 | 4.3 | 0.00 | 0.00 | 0.00 | 55 | 1019.9 |
| 20260503005412 | 68 | 310 | 1.7 | 2.6 | 0.00 | 0.00 | 0.00 | 55 | 1019.7 |
| 20260503004912 | 68 | 300 | 0.9 | 1.7 | 0.00 | 0.00 | 0.00 | 56 | 1019.7 |
| 20260503004412 | 69 | 348 | 3.5 | 4.3 | 0.00 | 0.00 | 0.00 | 55 | 1019.8 |
| 20260503003913 | 69 | 346 | 4.3 | 6.1 | 0.00 | 0.00 | 0.00 | 55 | 1019.7 |